Clair avec cirrus
Clair avec cirrus
Ciel clair mais brumeux avec cirrus
Ciel clair mais brumeux avec cirrus
Ciel clair mais brumeux avec cirrus
Ciel clair mais brumeux avec cirrus
Ciel clair mais brumeux avec cirrus
Ciel clair mais brumeux avec cirrus
Ciel clair mais brumeux avec cirrus
(°C)
23°
23°
22°
22°
21°
21°
20°
20°
19°
19°
19°
19°
18°
18°
19°
19°
20°
20°
(°C)
24°
23°
21°
20°
20°
19°
19°
19°
20°
SSO
S
S
SSE
SSE
SSE
SSE
SSE
SSE
(km/h)
12-21
12-19
12-18
12-18
13-20
13-21
13-21
13-22
14-22
(mm)
0
0
0
0
0
0
0
0
0
(%)
0
0
0
0
0
0
0
0
0

Élévation du soleil

/ -2.7°
sun-icon
UV 6
02:56
20:32
Gibbeuse croissante (160°)
19:41
00:59

METAR pour 55.61°N 49.28°E (UWKD)

Heure Conditions Température/
Point de rosée
Vent Visibilité Météo Nuages Pression Changement Brut
VFR 23°C / 18°C 220º 6kt 9700m - Clouds and Visibility OK 1002 No Significant change UWKD 201700Z 22003MPS CAVOK 23/18 Q1002 R29/CLRD70 NOSIG RMK QFE741/0988
VFR 24°C / 19°C 210º 4kt 9700m - Clouds and Visibility OK 1002 No Significant change UWKD 201630Z 21002MPS CAVOK 24/19 Q1002 R29/CLRD70 NOSIG RMK QFE741/0988
VFR 25°C / 17°C 220º 4kt 9700m - Clouds and Visibility OK 1003 No Significant change UWKD 201600Z 22002MPS CAVOK 25/17 Q1003 R29/70D NOSIG RMK QFE741/0988
VFR 25°C / 17°C 240º variable 200º to 260º 6kt 9700m - Clouds and Visibility OK 1003 No Significant change UWKD 201530Z 24003MPS 200V260 CAVOK 25/17 Q1003 R29/CLRD70 NOSIG RMK QFE741/0988
VFR 25°C / 18°C 240º 6kt 9700m - Clouds and Visibility OK 1003 No Significant change UWKD 201500Z 24003MPS CAVOK 25/18 Q1003 R29/CLRD70 NOSIG RMK QFE741/0988
VFR 26°C / 17°C 240º variable 170º to 270º 8kt 9700m - Clouds and Visibility OK 1003 No Significant change UWKD 201430Z 24004MPS 170V270 CAVOK 26/17 Q1003 R29/70D NOSIG RMK QFE741/0988
VFR 26°C / 17°C 250º 8kt 9700m - Scattered Clouds 4600ft 1003 No Significant change UWKD 201400Z 25004MPS 9999 SCT046 26/17 Q1003 R29/70D NOSIG RMK QFE741/0989
VFR 26°C / 16°C 250º 10kt 9700m - Scattered Clouds 4600ft 1004 No Significant change UWKD 201330Z 25005MPS 9999 SCT046 26/16 Q1004 R29/CLRD70 NOSIG RMK QFE742/0989
VFR 26°C / 16°C 260º 12kt 9700m - Scattered Clouds 4600ft 1004 No Significant change UWKD 201300Z 26006MPS 9999 SCT046 26/16 Q1004 R29/70D NOSIG RMK QFE742/0990
VFR 26°C / 16°C 260º 10kt 9700m - Scattered Clouds 4600ft 1005 No Significant change UWKD 201230Z 26005MPS 9999 SCT046 26/16 Q1005 R29/CLRD70 NOSIG RMK QFE742/0990
VFR 26°C / 16°C 270º 12kt 9700m - Scattered Clouds 4700ft 1005 No Significant change UWKD 201200Z 27006MPS 9999 SCT047 26/16 Q1005 R29/CLRD70 NOSIG RMK QFE743/0990
VFR 26°C / 16°C 270º 12kt 9700m - Scattered Clouds 4700ft 1005 No Significant change UWKD 201130Z 27006MPS 9999 SCT047 26/16 Q1005 R29/CLRD70 NOSIG RMK QFE743/0991
VFR 26°C / 16°C 260º 12kt 9700m - Scattered Clouds 4700ft 1005 No Significant change UWKD 201100Z 26006MPS 9999 SCT047 26/16 Q1005 R29/70D NOSIG RMK QFE743/0991
VFR 26°C / 15°C 280º 12kt 9700m - Broken Clouds 4700ft 1006 No Significant change UWKD 201030Z 28006MPS 9999 BKN047 26/15 Q1006 R29/CLRD70 NOSIG RMK QFE743/0991
VFR 26°C / 15°C 270º 14kt 9700m - Broken Clouds 4700ft 1006 No Significant change UWKD 201000Z 27007MPS 9999 BKN047 26/15 Q1006 R29/70D NOSIG RMK QFE744/0992
VFR 25°C / 16°C 270º variable 250º to 310º 12kt 9700m - Clouds and Visibility OK 1006 No Significant change UWKD 200930Z 27006MPS 250V310 CAVOK 25/16 Q1006 R29/CLRD70 NOSIG RMK QFE744/0992
VFR 25°C / 15°C 280º 12kt 9700m - Clouds and Visibility OK 1007 No Significant change UWKD 200900Z 28006MPS CAVOK 25/15 Q1007 R29/CLRD70 NOSIG RMK QFE744/0992
VFR 25°C / 15°C 280º variable 250º to 310º 12kt 9700m - Clouds and Visibility OK 1007 No Significant change UWKD 200830Z 28006MPS 250V310 CAVOK 25/15 Q1007 R29/70D NOSIG RMK QFE744/0992
VFR 25°C / 14°C 290º 14kt 9700m - Clouds and Visibility OK 1007 No Significant change UWKD 200800Z 29007MPS CAVOK 25/14 Q1007 R29/70D NOSIG RMK QFE744/0992
VFR 24°C / 13°C 270º 14kt 9700m - Clouds and Visibility OK 1007 No Significant change UWKD 200730Z 27007MPS CAVOK 24/13 Q1007 R29/CLRD70 NOSIG RMK QFE744/0992
VFR 24°C / 14°C 280º 12kt 9700m - Scattered Clouds 4000ft 1007 No Significant change UWKD 200700Z 28006MPS 9999 SCT040 24/14 Q1007 R29/70D NOSIG RMK QFE744/0992
VFR 23°C / 12°C 290º 12kt 9700m - Clouds and Visibility OK 1007 No Significant change UWKD 200630Z 29006MPS CAVOK 23/12 Q1007 R29/CLRD70 NOSIG RMK QFE744/0992
VFR 23°C / 13°C 290º 10kt 9700m - Clouds and Visibility OK 1007 No Significant change UWKD 200600Z 29005MPS CAVOK 23/13 Q1007 R29/CLRD70 NOSIG RMK QFE744/0993
VFR 23°C / 13°C 290º 10kt 9700m - Clouds and Visibility OK 1008 No Significant change UWKD 200530Z 29005MPS CAVOK 23/13 Q1008 R29/70D NOSIG RMK QFE744/0993

VFR

23°C / 18°C

[Plus]
Vent 220º 6kt
Visibilité 9700m
Météo -
Nuages Clouds and Visibility OK
Pression 1002
Changement No Significant change
Brut UWKD 201700Z 22003MPS CAVOK 23/18 Q1002 R29/CLRD70 NOSIG RMK QFE741/0988

VFR

24°C / 19°C

[Plus]
Vent 210º 4kt
Visibilité 9700m
Météo -
Nuages Clouds and Visibility OK
Pression 1002
Changement No Significant change
Brut UWKD 201630Z 21002MPS CAVOK 24/19 Q1002 R29/CLRD70 NOSIG RMK QFE741/0988

VFR

25°C / 17°C

[Plus]
Vent 220º 4kt
Visibilité 9700m
Météo -
Nuages Clouds and Visibility OK
Pression 1003
Changement No Significant change
Brut UWKD 201600Z 22002MPS CAVOK 25/17 Q1003 R29/70D NOSIG RMK QFE741/0988

VFR

25°C / 17°C

[Plus]
Vent 240º variable 200º to 260º 6kt
Visibilité 9700m
Météo -
Nuages Clouds and Visibility OK
Pression 1003
Changement No Significant change
Brut UWKD 201530Z 24003MPS 200V260 CAVOK 25/17 Q1003 R29/CLRD70 NOSIG RMK QFE741/0988

VFR

25°C / 18°C

[Plus]
Vent 240º 6kt
Visibilité 9700m
Météo -
Nuages Clouds and Visibility OK
Pression 1003
Changement No Significant change
Brut UWKD 201500Z 24003MPS CAVOK 25/18 Q1003 R29/CLRD70 NOSIG RMK QFE741/0988

VFR

26°C / 17°C

[Plus]
Vent 240º variable 170º to 270º 8kt
Visibilité 9700m
Météo -
Nuages Clouds and Visibility OK
Pression 1003
Changement No Significant change
Brut UWKD 201430Z 24004MPS 170V270 CAVOK 26/17 Q1003 R29/70D NOSIG RMK QFE741/0988

VFR

26°C / 17°C

[Plus]
Vent 250º 8kt
Visibilité 9700m
Météo -
Nuages Scattered Clouds 4600ft
Pression 1003
Changement No Significant change
Brut UWKD 201400Z 25004MPS 9999 SCT046 26/17 Q1003 R29/70D NOSIG RMK QFE741/0989

VFR

26°C / 16°C

[Plus]
Vent 250º 10kt
Visibilité 9700m
Météo -
Nuages Scattered Clouds 4600ft
Pression 1004
Changement No Significant change
Brut UWKD 201330Z 25005MPS 9999 SCT046 26/16 Q1004 R29/CLRD70 NOSIG RMK QFE742/0989

VFR

26°C / 16°C

[Plus]
Vent 260º 12kt
Visibilité 9700m
Météo -
Nuages Scattered Clouds 4600ft
Pression 1004
Changement No Significant change
Brut UWKD 201300Z 26006MPS 9999 SCT046 26/16 Q1004 R29/70D NOSIG RMK QFE742/0990

VFR

26°C / 16°C

[Plus]
Vent 260º 10kt
Visibilité 9700m
Météo -
Nuages Scattered Clouds 4600ft
Pression 1005
Changement No Significant change
Brut UWKD 201230Z 26005MPS 9999 SCT046 26/16 Q1005 R29/CLRD70 NOSIG RMK QFE742/0990

VFR

26°C / 16°C

[Plus]
Vent 270º 12kt
Visibilité 9700m
Météo -
Nuages Scattered Clouds 4700ft
Pression 1005
Changement No Significant change
Brut UWKD 201200Z 27006MPS 9999 SCT047 26/16 Q1005 R29/CLRD70 NOSIG RMK QFE743/0990

VFR

26°C / 16°C

[Plus]
Vent 270º 12kt
Visibilité 9700m
Météo -
Nuages Scattered Clouds 4700ft
Pression 1005
Changement No Significant change
Brut UWKD 201130Z 27006MPS 9999 SCT047 26/16 Q1005 R29/CLRD70 NOSIG RMK QFE743/0991

VFR

26°C / 16°C

[Plus]
Vent 260º 12kt
Visibilité 9700m
Météo -
Nuages Scattered Clouds 4700ft
Pression 1005
Changement No Significant change
Brut UWKD 201100Z 26006MPS 9999 SCT047 26/16 Q1005 R29/70D NOSIG RMK QFE743/0991

VFR

26°C / 15°C

[Plus]
Vent 280º 12kt
Visibilité 9700m
Météo -
Nuages Broken Clouds 4700ft
Pression 1006
Changement No Significant change
Brut UWKD 201030Z 28006MPS 9999 BKN047 26/15 Q1006 R29/CLRD70 NOSIG RMK QFE743/0991

VFR

26°C / 15°C

[Plus]
Vent 270º 14kt
Visibilité 9700m
Météo -
Nuages Broken Clouds 4700ft
Pression 1006
Changement No Significant change
Brut UWKD 201000Z 27007MPS 9999 BKN047 26/15 Q1006 R29/70D NOSIG RMK QFE744/0992

VFR

25°C / 16°C

[Plus]
Vent 270º variable 250º to 310º 12kt
Visibilité 9700m
Météo -
Nuages Clouds and Visibility OK
Pression 1006
Changement No Significant change
Brut UWKD 200930Z 27006MPS 250V310 CAVOK 25/16 Q1006 R29/CLRD70 NOSIG RMK QFE744/0992

VFR

25°C / 15°C

[Plus]
Vent 280º 12kt
Visibilité 9700m
Météo -
Nuages Clouds and Visibility OK
Pression 1007
Changement No Significant change
Brut UWKD 200900Z 28006MPS CAVOK 25/15 Q1007 R29/CLRD70 NOSIG RMK QFE744/0992

VFR

25°C / 15°C

[Plus]
Vent 280º variable 250º to 310º 12kt
Visibilité 9700m
Météo -
Nuages Clouds and Visibility OK
Pression 1007
Changement No Significant change
Brut UWKD 200830Z 28006MPS 250V310 CAVOK 25/15 Q1007 R29/70D NOSIG RMK QFE744/0992

VFR

25°C / 14°C

[Plus]
Vent 290º 14kt
Visibilité 9700m
Météo -
Nuages Clouds and Visibility OK
Pression 1007
Changement No Significant change
Brut UWKD 200800Z 29007MPS CAVOK 25/14 Q1007 R29/70D NOSIG RMK QFE744/0992

VFR

24°C / 13°C

[Plus]
Vent 270º 14kt
Visibilité 9700m
Météo -
Nuages Clouds and Visibility OK
Pression 1007
Changement No Significant change
Brut UWKD 200730Z 27007MPS CAVOK 24/13 Q1007 R29/CLRD70 NOSIG RMK QFE744/0992

VFR

24°C / 14°C

[Plus]
Vent 280º 12kt
Visibilité 9700m
Météo -
Nuages Scattered Clouds 4000ft
Pression 1007
Changement No Significant change
Brut UWKD 200700Z 28006MPS 9999 SCT040 24/14 Q1007 R29/70D NOSIG RMK QFE744/0992

VFR

23°C / 12°C

[Plus]
Vent 290º 12kt
Visibilité 9700m
Météo -
Nuages Clouds and Visibility OK
Pression 1007
Changement No Significant change
Brut UWKD 200630Z 29006MPS CAVOK 23/12 Q1007 R29/CLRD70 NOSIG RMK QFE744/0992

VFR

23°C / 13°C

[Plus]
Vent 290º 10kt
Visibilité 9700m
Météo -
Nuages Clouds and Visibility OK
Pression 1007
Changement No Significant change
Brut UWKD 200600Z 29005MPS CAVOK 23/13 Q1007 R29/CLRD70 NOSIG RMK QFE744/0993

VFR

23°C / 13°C

[Plus]
Vent 290º 10kt
Visibilité 9700m
Météo -
Nuages Clouds and Visibility OK
Pression 1008
Changement No Significant change
Brut UWKD 200530Z 29005MPS CAVOK 23/13 Q1008 R29/70D NOSIG RMK QFE744/0993

TAF pour 55.61°N 49.28°E (UWKD)

From till


Maximum Temperature 28ºC on . Minimum Temperature 16ºC on .
From till Wind 210º 6kt. Visibility 9700m. Scattered Clouds 3000ft.
Becoming from till
Temporarly from till Wind 35kt. Visibility 498.895m. Heavy Thunderstorm Rain Heavy Thunderstorm Hail Squalls . Scattered Clouds 500ft. Broken Clouds 2000ft.

Brut: TAF UWKD 201700Z 2018/2118 21003MPS 9999 SCT030 TX28/2111Z TN16/2101Z BECMG 2104/2106 20006G12MPS BKN016 TEMPO 2106/2118 VRB18MPS 0500 +TSRAGR SQ SCT005 BKN020CB

Radar et prévision de précipitation à court terme pour 55.61°N 49.28°E

Bruine
Légère
Modéré
Fort
Très fort
Grêle

Le marqueur est placé sur 55.61°N 49.28°E. Cette animation montre le radar des précipitations pour la plage horaire sélectionnée, ainsi qu'une 2h prévision. Les croix orange indiquent la foudre. Données fournies par nowcast.de (disponibles aux États-Unis, en Europe et en Australie). Une bruine ou une légère chute de neige peut être invisible pour le radar. L'intensité des précipitations est codée par couleur, allant du turquoise au rouge.

Les images satellites et les pluies actuelles pour 55.61°N 49.28°E

Le marqueur est placé sur 55.61°N 49.28°E. [Plus]

L'image satellite en temps réel combine la lumière visible pendant la journée et le rayonnement infrarouge pendant la nuit. La nuit, l'image n'est pas sombre car le rayonnement infrarouge permet de détecter les différences de température. Malheureusement, les nuages bas et le brouillard sont difficiles à distinguer des températures au sol et peuvent donc être presque invisibles pendant la nuit. Les images des satellites Météosat pour l'Europe sont mises à jour en temps réel toutes les 5 minutes. Les images GOES-16/GOES-17 (Amérique du Nord et du Sud) et Himawari (Asie) sont mises à jour toutes les 10 minutes.

Les précipitations sont estimées à partir de radars et de satellites. Les estimations des précipitations par satellite sont moins précises la nuit que le jour.

© 2024 meteoblue, NOAA Satellites GOES-16 and EUMETSAT. Données de foudre fournies par nowcast.

Retour vers le haut
×
Salut,
Il semble que vous utilisiez un logiciel antipub.

La publicité est essentielle pour maintenir notre site web gratuit avec des détails et précision uniques.

Veuillez mettre www.meteoblue.com sur la liste blanche de votre bloqueur de publicité ou envisager d'acheter l'un de nos produits :

Vous avez déjà un abonnement ?
Dans ce cas, veuillez vous connecter.